Wind_Gust
14 18 19 19 20 18 16 19 19 16 16 18 16 17 21 17 17 16 23 22 14 14 17 18 18 22 23 20 23 21 22 20 20 20 19 18 20 22 22 20 19 17 16 19 21 25 24 21 21 18 19 19 17 16 15 16 15 14 16 13 12 10 8 9 8 7 7 5 7 7 5 4 6 9 4 9 7 5 9 7 8 6 6 6 6 6
10 18 19 19 12 17 22 14 11 13 14 17 20 19 22 14 18 22 19 15 12 7 16 17 22 25 24 23 22 22 24 23 22 22 21 21 20 19 19 19 20 18 17 17 14 23 26 27 23 19 21 19 22 20 18 17 15 14 13 13 12 10 8 5 6 7 5 6 6 5 7 5 8 10 9 8 9 4 5 4 3 4 5 5 4 3
17 22 19 21 11 9 6 9 10 12 16 16 19 20 22 23 23 25 21 18 17 14 17 18 25 27 26 26 25 26 23 26 24 23 21 22 22 23 23 20 19 18 17 17 19 16 27 24 26 22 20 20 20 20 20 18 16 14 14 13 12 10 9 7 6 7 8 6 6 6 7 8 6 10 5 8 6 6 6 9 6 5 3 6 7 6
21 22 25 13 7 6 7 7 8 9 13 18 18 21 24 22 22 21 18 12 11 16 15 16 23 23 24 25 26 22 24 21 22 24 22 21 23 23 23 21 21 22 21 18 17 19 26 27 26 23 20 20 19 20 20 19 18 16 15 13 14 12 10 9 8 6 8 7 6 5 4 5 6 6 8 9 7 4 5 5 6 3 5 5 6 7
22 13 13 9 8 13 13 8 10 14 20 17 19 23 23 20 20 25 20 10 7 10 13 19 23 26 24 26 25 23 25 25 22 23 27 27 25 23 21 21 20 18 15 14 20 14 24 26 26 26 22 22 21 20 21 19 18 17 17 14 14 14 11 11 8 9 8 8 7 6 6 5 6 5 5 6 6 5 5 4 5 6 4 6 7 5
27 13 9 9 8 10 13 14 14 17 18 20 18 19 19 21 21 18 12 10 15 21 23 19 24 23 25 28 28 22 27 28 26 26 25 26 27 26 25 21 17 15 15 13 16 15 19 23 24 26 24 23 23 22 20 19 18 17 18 15 15 14 12 13 11 10 10 10 10 10 10 11 13 7 7 7 6 6 6 8 5 6 3 5 5 7
13 15 11 16 11 11 12 17 16 16 19 16 21 20 27 26 18 17 18 12 19 21 17 21 21 25 23 22 28 24 23 26 25 25 26 26 26 26 25 23 22 21 18 16 14 19 21 21 24 25 24 25 24 22 19 19 18 18 17 15 16 15 13 14 13 12 11 9 7 6 4 4 4 5 7 5 4 4 5 4 4 6 4 7 6 5
20 17 11 11 10 14 15 21 20 21 24 26 15 15 18 13 14 17 19 20 22 21 14 21 22 22 24 21 17 20 20 21 23 24 22 23 22 22 22 24 21 21 17 17 17 19 21 21 22 26 25 24 24 19 20 18 18 18 18 16 17 16 15 13 13 13 11 10 8 7 6 5 5 4 8 6 6 4 4 4 4 4 4 5 7 4
13 14 12 12 12 19 22 18 15 18 25 17 11 17 20 17 14 18 21 21 21 18 22 22 19 23 26 26 25 29 25 22 19 21 21 20 22 22 22 23 21 19 20 21 20 17 21 23 22 22 25 23 22 20 20 19 18 17 17 16 17 16 14 15 14 13 11 9 9 9 7 7 6 7 8 9 6 6 4 3 3 4 5 5 4 7
12 10 13 15 16 20 17 22 21 16 20 16 16 9 15 16 14 17 21 22 22 25 25 25 20 28 24 20 23 21 20 21 23 22 20 19 19 20 21 19 18 20 21 22 21 20 19 21 21 19 20 22 20 18 18 18 17 17 17 17 20 18 16 15 15 13 12 10 9 9 8 8 7 5 5 5 7 5 5 5 3 4 5 4 4 4
23 12 12 15 21 21 21 24 19 17 15 10 10 17 19 21 21 19 20 23 24 29 29 23 22 25 28 18 21 18 26 18 18 19 17 19 19 19 18 19 19 20 21 22 21 20 18 18 20 19 21 21 18 17 18 17 19 17 17 18 20 20 16 16 16 14 13 11 10 9 8 8 8 7 6 6 6 7 5 6 5 5 5 4 5 4
24 19 19 22 18 21 19 22 11 10 13 13 16 20 19 22 19 20 21 19 23 29 22 22 24 20 27 20 22 20 17 19 14 13 18 20 20 20 17 19 19 19 18 20 21 21 18 18 19 19 20 20 19 17 18 17 18 19 18 18 20 19 17 17 17 15 15 13 11 10 10 10 8 9 8 7 7 6 6 5 6 5 6 6 5 5
23 24 18 18 19 21 21 20 17 18 18 21 19 20 21 23 19 27 23 27 29 27 20 21 19 25 30 23 25 22 16 15 10 11 12 13 18 18 18 18 18 19 18 21 20 18 19 17 17 19 19 19 18 19 19 20 18 18 19 20 21 21 19 17 18 16 15 13 13 12 12 11 10 10 9 8 7 7 7 7 7 6 6 5 6 5
20 19 20 20 20 23 22 23 19 22 22 21 23 21 22 25 24 24 25 26 24 28 24 27 16 26 20 19 22 24 21 16 13 13 17 17 17 17 18 18 18 17 19 20 21 23 22 21 18 19 18 20 18 19 21 21 19 19 19 20 21 21 19 17 17 17 16 15 13 13 13 12 12 11 9 8 9 8 8 6 6 6 7 7 6 7
16 18 22 21 22 18 24 23 21 21 16 25 20 25 23 26 29 24 25 23 21 15 8 9 12 16 10 14 15 18 20 19 17 16 16 15 14 16 18 20 22 22 19 21 20 20 23 24 20 19 17 17 19 20 21 20 20 19 18 20 20 20 20 19 18 17 17 16 15 14 14 13 12 12 11 11 9 8 8 6 6 6 6 7 8 8
21 25 14 14 16 15 20 21 23 24 27 25 23 22 25 26 19 32 23 27 27 25 25 14 18 8 18 13 19 16 17 20 19 17 15 15 13 14 15 16 16 16 20 19 18 17 20 24 21 18 17 18 20 22 21 21 19 18 19 19 20 20 20 20 18 17 17 16 15 14 13 13 12 11 11 11 9 7 7 7 7 7 7 8 8 8
17 23 12 19 20 20 17 19 26 21 27 14 19 26 24 17 26 21 19 23 17 22 33 21 22 27 20 25 25 25 21 19 20 20 18 18 18 15 15 16 17 17 16 15 17 16 16 24 23 23 20 19 19 20 20 20 20 20 19 18 20 19 18 20 19 18 17 16 15 15 15 14 13 12 12 10 9 9 8 7 7 8 9 8 8 10
22 24 18 22 20 17 20 20 24 24 26 31 31 21 19 19 20 22 25 19 22 28 27 16 13 17 23 31 16 20 24 26 23 22 20 17 19 20 18 16 17 18 17 15 16 16 16 23 25 24 21 20 19 18 19 21 18 18 17 18 20 20 21 21 20 19 17 17 17 16 16 15 14 13 12 10 9 10 9 9 9 9 10 10 10 11
14 28 21 19 24 25 22 24 26 24 23 30 29 18 23 21 23 20 23 24 23 27 30 21 22 27 27 29 23 20 19 19 18 21 22 21 20 20 19 20 19 17 14 15 16 18 18 15 23 23 21 22 19 17 17 18 17 16 16 18 19 21 21 21 20 18 18 17 16 16 17 16 15 14 13 11 10 10 10 11 11 11 10 9 9 11
17 25 25 19 22 19 24 25 27 21 23 29 27 33 24 29 27 26 24 23 26 26 21 22 27 31 26 27 20 22 20 21 20 19 17 20 19 14 16 18 19 18 12 15 18 18 18 16 17 20 19 22 21 19 15 17 17 18 18 17 17 17 17 18 19 18 17 18 17 16 16 16 17 16 15 13 12 12 12 12 12 12 11 11 12 12
21 14 28 20 20 19 27 20 25 23 25 21 20 26 25 28 21 29 29 31 29 29 27 28 30 28 22 19 19 20 18 16 15 14 16 18 18 22 20 16 14 13 10 13 16 16 16 15 16 19 20 23 23 20 17 19 19 18 17 17 17 18 18 19 19 19 17 17 17 16 17 17 16 15 15 13 13 13 12 12 12 11 11 11 12 13
21 16 25 26 24 25 26 23 24 25 23 24 23 22 21 21 21 25 28 22 35 35 32 30 36 30 20 15 18 18 15 16 17 19 16 16 19 22 21 16 14 10 11 13 13 14 16 17 18 19 23 24 19 23 23 22 19 19 17 18 18 19 20 20 22 20 19 17 17 17 17 17 15 15 14 13 13 13 13 12 12 11 12 13 14 14
10 15 23 24 25 27 26 27 26 26 27 29 27 29 26 24 24 24 29 23 23 28 24 28 32 32 26 19 21 21 19 18 17 20 26 20 15 23 24 20 13 13 16 14 15 15 15 14 18 23 21 22 25 24 22 20 20 20 18 18 18 20 19 21 22 21 19 19 18 18 17 16 16 15 14 13 13 13 14 13 12 12 13 14 15 15
10 16 21 29 28 30 33 31 32 31 30 31 30 28 29 32 29 33 33 23 25 22 26 27 32 32 21 13 18 15 19 19 17 15 17 22 18 15 23 25 24 18 15 15 15 15 14 15 17 21 23 23 25 21 21 20 19 19 19 20 20 20 20 21 21 22 21 19 18 17 17 17 15 15 14 14 14 13 13 13 12 13 14 16 15 17
14 9 17 22 27 26 23 23 27 24 28 25 24 22 22 23 20 20 22 19 25 23 28 30 36 28 18 17 22 20 19 19 19 18 14 16 13 15 13 13 20 27 23 19 20 20 19 20 21 24 26 24 25 23 20 20 19 20 20 19 19 19 20 20 20 21 22 21 19 18 18 16 16 15 14 14 13 13 13 13 14 13 15 15 16 16
17 16 18 22 22 24 24 18 15 14 19 20 16 18 19 20 19 20 23 20 26 21 25 29 33 27 29 28 27 24 23 21 19 22 23 23 21 22 15 7 11 11 24 26 24 21 21 24 25 25 20 24 25 24 24 21 20 21 20 20 16 19 19 19 20 20 19 20 20 19 18 16 15 15 14 14 14 13 13 13 13 14 14 15 17 16
20 20 22 23 25 28 28 27 23 27 25 24 23 24 25 23 23 22 22 25 31 24 27 26 28 25 29 29 30 29 24 24 22 22 26 27 25 24 22 18 10 10 12 20 26 27 25 21 23 25 22 22 23 23 26 24 23 22 20 19 19 19 19 19 19 20 19 18 18 18 18 17 16 14 13 13 13 12 13 13 13 14 15 14 16 16
20 23 23 23 29 34 33 33 30 27 29 30 29 30 30 29 27 26 26 35 26 33 35 30 24 27 27 29 29 30 29 27 27 26 26 27 25 26 25 22 17 20 16 13 13 18 26 26 24 22 20 21 24 23 24 27 24 22 20 22 20 19 18 18 18 19 19 17 17 17 17 16 15 14 13 12 11 12 12 12 13 14 14 14 15 16
18 24 20 22 28 30 30 31 29 29 27 30 31 32 33 31 28 25 21 28 27 32 40 27 29 26 31 33 35 35 31 30 29 29 27 27 29 30 29 31 31 29 26 23 20 18 17 27 27 26 26 21 20 20 16 22 21 18 19 20 19 19 19 19 18 18 18 17 16 16 14 12 13 11 12 12 12 12 13 13 13 13 14 13 15 16
24 25 23 24 31 31 29 27 26 29 29 30 32 33 33 30 25 27 30 29 33 32 32 33 30 29 35 38 39 37 32 32 32 29 29 28 29 28 30 30 32 31 30 27 20 15 11 12 24 27 26 26 22 23 21 19 20 21 21 20 20 20 20 19 17 18 18 18 16 14 15 14 12 12 11 12 13 13 13 13 13 13 14 16 17 17
24 27 16 23 26 32 29 26 25 26 27 34 35 39 37 32 30 29 31 25 28 30 31 30 24 29 37 32 33 33 33 31 31 31 30 29 29 29 29 30 31 33 32 31 23 18 15 13 14 29 33 32 33 21 20 18 19 21 20 20 20 21 21 20 19 18 18 17 16 16 15 14 13 13 13 13 13 12 13 14 13 14 15 14 15 15
21 23 21 26 29 32 26 23 24 26 26 30 36 36 28 24 24 26 30 25 21 21 19 17 23 34 33 31 31 31 32 32 31 29 29 28 28 29 29 29 32 34 32 31 30 20 17 17 14 19 27 33 33 25 19 18 20 20 20 20 21 21 21 19 18 18 18 16 16 15 15 14 13 13 13 13 13 13 13 13 14 15 15 15 15 15
23 24 26 22 29 36 26 21 25 18 20 30 37 21 17 27 31 32 33 30 29 23 22 30 31 29 30 30 32 29 30 32 32 31 30 30 32 33 34 33 32 30 33 32 34 30 23 18 16 18 31 34 26 24 22 21 19 19 19 19 18 19 19 19 18 18 17 16 15 15 13 13 13 12 12 12 13 13 12 13 14 15 15 15 13 13
25 26 29 23 34 34 25 19 20 24 33 48 11 10 15 20 20 25 25 26 28 29 31 29 29 29 28 31 31 32 31 32 27 24 24 27 28 30 32 33 33 31 30 30 33 36 30 20 18 19 23 24 22 23 18 18 18 16 15 19 18 18 19 19 19 16 16 16 15 13 12 11 11 12 11 11 12 12 13 13 15 14 13 13 14 15
21 23 27 27 32 35 22 16 26 33 49 20 21 24 23 25 28 30 32 31 32 30 28 29 29 31 31 31 31 28 24 27 27 28 28 28 29 32 33 35 35 32 31 30 27 27 21 19 16 17 16 19 18 22 22 19 16 16 18 18 17 17 18 18 18 16 15 14 13 11 10 10 11 11 12 12 12 11 13 15 14 14 14 15 14 13
26 27 28 30 30 31 33 29 36 45 24 25 25 23 21 24 25 26 27 25 25 26 27 30 28 30 28 27 24 23 24 27 30 28 27 27 27 32 33 35 36 35 31 22 20 18 20 18 20 18 23 22 22 20 19 17 15 17 16 18 17 17 17 17 16 16 14 12 11 9 9 10 10 11 12 13 13 14 14 14 13 13 13 15 11 11
29 30 31 33 27 36 32 32 39 30 38 32 27 17 22 23 18 18 20 16 20 23 25 29 27 22 19 18 19 21 24 28 30 30 26 25 23 22 25 27 30 30 28 26 24 22 21 22 19 21 19 19 23 19 16 17 16 16 16 18 17 18 17 15 15 14 13 12 10 9 9 9 10 12 12 13 13 14 14 13 13 12 13 14 15 14
31 33 24 34 36 31 32 36 36 33 38 29 19 15 18 17 13 13 12 21 19 20 16 16 16 17 17 17 18 17 18 23 28 27 21 19 21 25 28 27 28 29 30 25 17 16 13 20 22 21 20 18 19 18 16 16 16 16 16 18 17 17 16 15 13 12 10 10 10 8 8 9 11 12 13 12 13 13 12 13 15 16 14 15 15 16
29 31 28 35 36 29 32 38 40 35 37 20 19 14 18 17 11 10 9 23 17 16 20 22 20 20 20 21 20 19 22 27 28 25 22 23 26 27 28 27 28 27 29 27 15 19 27 26 26 25 19 20 19 17 14 15 16 17 17 17 16 17 15 15 13 12 10 8 6 6 8 9 10 11 12 13 13 12 14 14 14 16 15 13 15 15
25 24 26 34 32 38 36 39 38 35 39 15 16 17 15 16 14 9 19 18 16 13 12 12 14 15 15 21 21 21 23 26 29 26 26 29 30 29 28 30 28 28 26 21 9 13 14 18 19 19 19 16 13 12 10 14 17 14 16 17 15 15 14 13 10 5 14 8 4 6 8 7 8 9 10 12 11 12 14 14 16 14 13 11 14 19
23 28 26 34 34 34 28 38 37 36 28 13 13 14 15 11 9 18 30 19 19 19 20 19 19 19 22 24 22 25 21 25 27 28 29 29 28 30 30 28 19 14 15 18 13 15 14 12 14 18 17 17 15 12 10 14 16 15 15 15 14 14 12 9 11 14 6 5 6 8 8 8 8 9 10 12 12 13 14 14 14 10 11 14 16 17
27 23 27 28 30 33 30 36 38 31 14 14 11 7 9 8 20 25 19 16 22 23 20 23 20 19 21 24 23 22 25 26 28 28 28 28 27 28 30 27 11 12 18 14 22 19 17 20 19 15 16 14 16 15 13 16 17 17 16 15 14 13 10 10 11 11 7 8 7 6 7 8 8 8 10 11 11 13 13 13 15 16 13 15 19 21
25 27 26 27 27 28 26 32 29 32 10 9 10 11 12 12 16 19 20 21 18 21 19 18 20 17 13 18 24 27 27 27 27 28 28 26 24 22 25 25 20 10 10 17 19 18 17 13 10 9 9 10 11 14 16 18 17 16 15 15 14 11 12 15 10 8 7 5 6 6 7 7 8 9 9 9 11 12 12 13 14 11 13 16 18 21
19 32 31 29 24 32 29 33 29 14 9 18 14 15 6 19 22 21 20 24 18 17 19 20 19 17 14 15 20 25 26 27 26 25 24 20 19 19 17 18 16 11 9 10 12 15 19 14 12 11 10 11 11 13 15 17 18 16 16 15 12 14 15 14 7 6 4 4 5 6 7 9 9 9 10 11 11 12 12 11 12 15 16 17 20 24
12 21 18 25 21 23 28 26 23 24 24 20 21 24 24 23 22 22 22 22 20 18 14 21 20 18 16 19 21 23 26 24 25 23 22 18 18 18 19 18 11 8 11 13 20 23 20 22 16 13 11 12 11 14 16 16 17 16 15 14 14 17 15 11 8 6 5 5 6 7 9 7 9 10 11 12 13 13 11 10 10 12 14 17 22 25
24 25 24 30 32 26 30 29 27 30 28 28 26 23 24 22 24 24 20 18 18 20 20 20 22 20 19 19 23 22 23 24 24 23 15 13 15 15 16 16 15 13 19 25 26 23 22 17 10 10 11 11 13 15 15 17 18 17 15 16 17 15 12 10 7 8 5 8 7 7 10 11 10 12 13 11 11 10 9 9 11 12 13 16 16 17
25 21 18 19 21 24 32 17 22 25 24 23 25 26 26 24 20 15 12 9 15 17 18 23 24 21 18 19 19 22 23 22 22 18 9 9 13 15 16 18 24 24 25 26 23 7 8 11 9 9 11 11 13 15 17 17 17 17 16 20 18 15 12 9 7 6 6 6 4 7 9 10 10 12 10 11 13 13 11 11 10 10 9 10 15 17
20 12 19 22 23 28 32 30 30 27 26 26 28 27 27 22 19 16 13 14 16 10 8 14 21 18 15 19 19 21 22 20 19 16 8 6 10 15 18 21 21 23 23 16 6 7 10 11 10 11 12 12 13 15 17 19 17 20 16 18 17 14 12 9 6 6 9 5 7 10 13 12 4 8 12 13 14 12 11 10 9 9 8 10 11 15
31 26 31 24 35 33 31 31 33 30 28 26 22 15 13 10 13 17 17 19 18 14 13 12 11 16 17 19 19 19 20 18 14 7 8 12 15 17 17 16 14 15 9 8 7 8 15 13 14 13 13 14 13 16 18 17 15 24 21 16 15 13 12 11 8 7 8 6 7 10 12 11 12 12 12 14 13 13 11 6 6 7 7 4 7 9
30 35 31 27 31 30 29 29 19 26 26 22 19 20 13 11 12 21 23 22 17 9 12 15 14 13 15 17 15 13 13 12 11 10 13 13 15 14 14 10 15 19 16 9 8 10 7 7 11 14 12 16 13 16 17 14 19 23 20 17 16 13 11 11 12 11 9 7 9 16 12 11 11 11 12 13 15 14 11 10 8 4 6 6 4 7
29 31 28 32 30 31 26 26 23 25 28 27 24 20 20 18 19 26 25 24 14 7 10 12 13 15 16 14 7 8 10 13 14 14 14 15 14 15 12 9 15 21 22 13 9 10 7 9 11 12 13 16 15 18 17 17 20 23 18 17 14 14 13 13 12 7 7 7 11 10 6 8 13 12 12 13 14 15 14 14 8 11 7 6 9 7
Wind_Speed
6 7 7 7 9 5 6 11 12 7 7 10 9 9 11 8 9 7 10 13 7 6 9 9 10 12 12 11 12 9 14 11 10 11 8 9 10 11 11 10 9 8 9 12 12 16 14 13 13 11 10 9 8 8 9 8 8 7 7 7 6 4 3 3 3 2 3 2 4 3 1 2 3 3 1 5 3 2 4 2 3 1 1 2 1 3
3 7 9 10 8 2 11 9 6 5 8 9 10 10 10 7 7 9 5 7 5 3 5 6 10 12 13 13 12 13 14 14 12 11 11 11 10 10 12 12 11 8 7 7 8 16 16 14 14 12 12 10 11 9 10 9 9 7 7 8 6 4 4 2 3 3 2 2 2 2 2 1 4 3 3 3 4 2 2 1 1 1 1 1 1 1
6 8 9 12 2 5 2 5 6 7 8 9 8 9 10 9 9 15 8 11 8 6 6 8 11 13 15 15 14 14 13 12 13 13 10 11 12 10 11 9 7 7 6 7 8 10 16 16 15 12 12 11 11 11 10 9 8 8 7 6 6 5 3 2 3 3 4 2 2 2 2 3 2 4 1 3 3 1 2 5 3 3 1 2 2 2
9 9 16 5 1 1 4 1 4 4 5 6 7 8 9 10 10 8 5 2 5 4 4 4 9 9 12 14 16 14 12 11 13 13 11 9 11 12 11 10 8 9 8 9 8 9 16 16 15 11 12 12 10 10 9 9 9 7 7 6 7 6 4 4 3 2 4 4 3 2 2 1 2 3 4 5 4 2 3 1 2 0 3 1 2 2
10 7 5 5 1 5 8 3 4 4 6 7 9 11 10 10 10 8 3 4 3 3 3 9 9 10 11 13 12 12 12 11 8 14 15 13 13 10 7 8 9 10 9 8 6 7 15 16 16 13 12 12 11 11 11 10 9 7 8 7 8 6 5 5 3 4 4 4 3 2 2 2 0 2 3 3 3 1 1 1 2 3 1 1 2 2
15 6 4 4 1 5 3 7 4 5 7 8 10 11 11 13 13 11 6 5 3 6 8 9 7 7 12 16 16 12 11 14 15 14 14 16 15 15 14 12 10 6 3 2 5 5 13 14 14 14 12 12 12 12 11 10 10 9 8 7 7 6 5 6 4 5 5 4 5 5 4 5 7 4 3 3 2 2 2 2 1 2 2 0 0 1
3 8 5 7 7 5 6 7 7 9 7 6 8 9 16 18 12 9 12 6 5 7 6 11 8 7 9 12 15 13 12 15 13 14 15 14 13 15 14 12 10 7 7 6 5 8 9 11 14 15 13 13 12 12 10 10 10 10 9 8 8 7 5 7 6 5 5 4 4 3 2 2 1 3 3 2 1 1 1 2 1 1 1 3 3 2
9 11 5 6 5 6 7 8 8 11 10 10 5 8 12 5 8 8 10 10 9 9 4 11 8 6 8 10 9 9 13 13 14 15 14 13 13 14 12 12 10 11 9 7 8 8 11 11 12 15 14 13 12 11 11 11 10 10 10 9 9 7 6 6 6 6 5 4 3 2 1 1 2 1 4 2 3 1 1 1 1 1 2 0 2 1
4 7 6 7 6 7 9 9 8 11 10 5 6 6 11 11 8 7 9 9 9 8 8 10 12 8 8 11 13 16 12 13 10 10 12 12 12 12 11 11 12 11 9 9 9 7 11 12 11 12 14 13 13 11 11 11 10 9 9 9 9 8 7 7 8 7 6 4 4 3 2 3 3 2 3 3 2 4 2 0 1 0 1 1 2 2
3 4 4 7 7 8 8 12 13 9 9 8 9 1 7 9 8 7 9 9 9 10 9 12 10 10 9 8 9 11 11 8 10 12 12 11 11 11 11 10 10 10 10 11 12 9 9 12 12 11 12 13 11 10 10 10 10 9 9 9 11 9 7 8 8 7 6 4 5 4 4 4 3 3 3 2 4 2 2 2 1 1 2 1 2 2
12 3 2 5 9 10 11 13 10 10 9 4 3 7 8 9 9 9 8 8 8 10 12 14 14 11 9 7 8 6 7 6 9 10 8 10 10 11 9 11 9 10 11 12 12 10 8 11 13 12 12 13 11 9 10 10 10 9 9 9 12 10 7 9 8 7 6 4 4 4 3 3 3 3 3 2 3 2 2 2 2 2 2 1 1 1
13 8 7 7 9 9 10 11 4 2 3 5 5 7 7 9 9 8 8 9 8 9 11 13 14 11 10 8 9 5 5 11 8 7 10 12 12 11 8 10 10 10 10 12 12 11 9 10 11 11 11 12 11 10 11 9 9 9 9 9 11 10 9 9 8 8 7 5 5 4 4 3 3 3 2 2 3 2 2 1 1 1 2 3 3 2
11 11 9 9 9 12 10 10 7 7 6 8 7 7 8 7 4 8 8 9 10 8 9 11 12 11 13 10 12 13 9 6 4 4 4 5 10 10 11 10 9 9 10 10 10 9 10 10 10 10 10 11 10 11 11 11 9 9 9 10 11 11 10 9 9 8 7 6 6 5 5 4 3 4 3 3 2 2 2 2 2 2 1 1 2 1
7 11 11 11 10 11 11 9 7 9 9 9 9 8 8 8 7 7 9 7 8 11 10 13 9 10 9 8 7 12 13 10 6 6 6 11 4 9 10 9 8 8 10 10 11 11 12 11 10 11 9 10 9 10 10 10 9 8 9 10 11 11 10 8 9 9 8 7 6 5 5 5 4 4 4 3 2 2 2 2 2 2 2 2 2 2
6 6 8 9 7 9 12 10 9 9 6 10 9 9 9 9 8 6 7 7 8 4 1 6 3 3 5 2 6 11 9 11 9 8 6 8 5 5 8 9 11 11 8 10 8 10 13 14 13 12 10 9 9 10 10 9 9 9 9 10 11 11 11 10 10 8 8 7 7 5 6 5 4 5 4 3 3 3 3 2 1 1 1 1 2 2
12 10 5 8 8 6 11 10 11 12 12 10 9 10 9 8 6 11 7 9 10 8 8 5 4 1 5 4 8 8 7 11 12 7 7 7 5 4 5 7 7 9 11 9 7 6 13 14 12 10 8 10 10 12 10 10 10 9 9 10 11 11 11 10 10 9 8 7 6 6 6 6 5 5 4 4 3 2 3 2 2 2 2 2 2 2
6 8 3 11 11 12 8 9 13 11 9 4 7 10 9 8 10 5 5 9 9 7 10 4 6 9 8 11 12 14 13 10 10 13 8 8 8 6 5 6 7 7 6 6 7 5 11 13 13 10 11 9 10 10 10 11 11 11 10 10 10 10 9 10 10 9 8 7 7 7 6 6 5 5 5 4 4 3 2 2 2 2 2 2 2 2
9 9 11 11 13 5 7 10 13 14 11 9 11 9 10 9 8 5 7 4 6 9 7 5 4 5 7 6 6 12 13 13 14 13 11 5 8 9 8 5 5 8 7 5 5 5 6 15 15 13 11 11 11 12 12 12 10 10 9 10 11 10 11 11 10 10 8 8 8 7 7 6 6 5 4 3 3 3 3 2 2 2 3 3 3 3
3 10 9 11 13 12 11 14 14 14 13 14 14 8 8 4 7 7 3 7 7 8 7 7 12 10 11 11 10 12 11 8 9 10 10 10 7 9 8 10 9 8 5 4 5 5 5 7 14 14 13 13 12 11 11 11 10 9 8 9 10 11 11 12 10 9 7 8 6 6 7 7 6 5 4 3 3 3 3 4 3 3 3 3 2 2
6 8 9 8 12 8 9 10 11 8 9 15 14 14 11 11 10 9 4 7 7 10 8 9 12 8 10 10 11 13 10 9 10 8 7 7 9 4 5 6 8 8 6 5 6 7 7 6 9 13 13 13 11 10 9 11 10 11 10 10 9 9 9 10 10 9 8 8 7 6 7 7 7 7 6 5 4 4 4 4 4 3 3 3 3 3
6 4 10 7 10 9 9 6 10 8 9 8 7 9 8 6 6 10 8 10 9 8 9 9 10 8 7 6 8 10 9 7 7 6 3 7 6 8 7 5 6 5 5 6 5 6 6 6 6 10 11 11 11 11 10 9 11 10 9 9 10 11 10 10 10 9 8 8 8 8 8 8 7 7 6 5 5 5 4 3 3 3 3 2 3 3
4 4 9 9 9 10 11 10 13 14 11 9 9 9 9 7 5 2 9 7 8 9 6 7 9 9 9 3 8 8 6 8 9 10 9 5 8 8 10 9 4 4 3 5 4 4 4 5 7 8 11 11 11 12 13 11 10 10 9 9 9 9 9 9 11 10 9 8 7 8 8 8 6 6 5 5 5 5 4 3 3 3 3 4 4 4
2 4 8 9 9 11 13 15 16 16 15 14 11 12 12 9 8 7 6 8 8 9 10 9 7 11 11 7 9 8 10 10 9 8 10 11 8 8 10 12 9 3 3 3 5 5 5 5 7 10 10 11 11 12 13 11 11 10 10 9 9 9 9 10 11 10 8 8 8 8 7 7 7 6 6 6 5 5 5 4 4 4 4 5 5 5
6 2 7 12 13 15 18 18 19 19 18 16 14 13 13 13 13 12 12 8 7 8 9 6 8 8 7 5 6 6 6 6 8 8 8 4 5 7 10 7 8 12 8 5 4 4 4 4 5 9 10 10 12 12 13 11 11 10 10 10 10 10 10 10 10 10 9 8 8 8 8 7 7 7 6 6 5 5 5 4 4 4 5 5 5 6
3 2 5 7 8 8 10 10 11 11 10 6 7 8 11 11 9 8 9 7 7 9 12 10 11 9 7 7 12 12 10 12 8 9 8 9 2 4 3 5 7 6 8 12 9 6 7 7 9 11 11 11 14 12 11 11 10 11 10 10 10 9 10 10 10 10 11 11 10 9 8 8 7 7 6 6 5 5 5 5 5 4 6 5 5 6
4 6 5 7 8 9 8 5 3 4 9 7 8 9 11 13 12 9 7 6 9 10 13 9 9 9 13 14 14 14 13 12 11 10 11 11 12 10 9 1 2 3 5 6 11 14 10 10 11 11 10 11 14 12 12 10 10 10 10 10 8 10 9 9 9 10 9 9 10 9 9 8 7 6 6 6 5 5 4 4 4 4 4 5 6 6
4 7 8 9 10 11 12 12 13 15 10 8 14 15 15 14 14 12 8 8 10 9 10 11 13 12 16 18 16 14 11 12 12 12 12 14 14 12 11 11 5 3 5 8 9 6 11 13 11 12 13 11 11 11 11 12 12 12 10 10 9 10 9 9 9 9 9 9 9 9 9 8 7 6 5 5 5 4 4 5 4 5 6 5 5 6
6 7 11 13 17 18 18 19 18 16 16 16 17 17 17 16 14 14 9 12 12 12 15 11 12 11 15 18 18 17 15 14 13 13 14 12 12 12 12 12 13 12 10 8 8 7 8 7 13 15 12 10 11 13 12 14 13 12 11 11 10 10 9 8 9 9 9 8 8 8 8 7 6 5 5 4 4 4 4 4 4 4 4 4 5 5
5 7 11 13 17 18 18 18 17 15 15 16 18 18 20 19 16 13 10 15 15 10 16 14 16 15 17 20 22 20 16 15 15 16 15 16 15 15 15 15 17 17 16 15 12 11 11 7 7 10 17 11 9 9 10 13 11 8 9 10 9 9 9 8 9 9 9 8 8 7 7 6 6 5 4 4 3 3 3 4 4 4 4 3 4 4
7 9 12 13 17 19 18 16 15 17 16 18 19 20 20 17 14 13 15 16 17 16 16 17 17 16 16 21 22 20 17 16 16 14 14 16 17 16 16 16 17 16 17 17 13 11 8 8 8 7 8 17 14 13 11 8 10 10 10 10 9 9 9 9 8 9 8 8 7 6 6 5 4 3 3 3 3 4 4 4 4 3 4 4 5 5
9 8 9 12 11 15 16 14 16 15 15 18 22 24 22 18 18 17 16 13 16 16 17 17 13 15 16 17 17 18 16 15 14 17 17 15 15 15 16 16 15 15 18 18 15 10 10 9 8 7 6 6 19 17 9 8 8 10 11 10 10 10 10 11 9 8 8 8 7 6 6 5 5 5 5 4 4 4 5 5 3 3 4 4 4 5
10 8 11 11 11 13 12 13 14 16 17 19 22 22 15 13 13 12 11 9 9 11 12 10 11 14 13 15 16 16 18 18 17 17 16 13 14 15 16 17 16 14 15 16 18 13 9 9 9 7 6 3 11 17 7 8 9 11 10 10 11 11 10 9 8 8 8 7 7 7 7 5 5 4 4 4 4 4 4 3 3 4 4 4 4 4
9 7 8 9 13 15 13 11 15 11 10 14 17 6 8 16 17 16 17 17 15 12 11 13 12 12 15 15 16 16 17 18 18 14 13 13 13 15 16 17 20 19 17 15 14 18 12 10 11 9 8 6 12 12 11 10 8 10 10 9 9 9 9 9 8 9 8 7 7 7 6 5 5 4 3 3 3 3 3 3 3 4 4 4 3 3
12 12 10 8 11 13 12 10 11 10 14 17 3 1 7 9 9 12 11 13 16 14 9 12 12 13 15 16 17 16 16 15 14 13 14 14 14 14 15 17 17 18 17 15 17 14 12 9 6 8 11 12 13 14 13 9 8 9 7 9 9 9 10 10 9 7 7 7 6 6 5 4 3 3 3 3 3 3 3 3 3 4 4 3 4 3
10 9 10 10 10 13 9 7 9 14 19 5 9 11 12 14 16 18 18 18 18 16 13 13 15 14 14 16 18 16 12 12 13 15 16 16 15 14 17 18 18 18 18 18 15 12 9 9 9 7 8 12 13 14 14 8 6 8 9 9 8 8 8 9 10 7 6 6 6 4 3 3 2 2 3 3 3 3 3 3 4 4 4 4 3 2
10 10 9 9 10 10 12 9 12 17 10 14 14 14 13 14 14 15 15 15 15 14 14 15 13 16 13 7 7 8 10 13 14 14 13 16 16 14 13 13 14 15 16 14 9 12 8 6 8 9 8 9 8 11 10 9 6 8 7 9 7 7 8 8 8 7 6 5 4 3 2 2 2 2 3 3 3 3 3 3 3 4 3 3 3 2
16 13 11 11 9 13 11 13 14 13 18 18 12 6 7 3 6 6 7 8 10 10 14 13 11 9 8 8 8 9 10 11 12 11 11 12 10 11 14 15 16 16 15 16 16 15 10 11 9 9 7 11 14 9 6 5 5 6 7 9 8 9 8 6 7 7 6 5 5 3 2 1 1 2 3 3 3 3 3 3 3 3 2 3 1 2
17 15 8 11 9 11 13 14 12 11 15 11 6 8 11 10 8 7 5 7 10 9 8 9 10 11 10 10 11 10 10 10 11 10 9 11 10 14 15 16 16 17 17 16 7 8 6 6 5 11 12 9 10 10 7 8 7 7 7 8 8 9 8 7 6 5 5 6 4 3 2 2 3 3 3 3 3 2 2 3 3 4 3 3 4 3
17 18 13 12 12 10 12 14 12 12 10 9 7 9 10 8 5 5 4 9 4 8 7 7 6 8 10 10 11 11 10 11 12 10 9 13 16 16 18 17 16 17 17 18 10 6 7 6 12 16 12 12 11 11 9 8 9 8 7 8 7 8 7 7 6 4 4 4 3 1 0 1 2 2 2 3 3 3 3 3 4 4 5 1 2 3
12 9 11 14 14 13 13 14 15 8 9 6 6 6 6 6 6 1 4 2 8 7 6 5 5 7 9 9 10 10 11 11 12 11 14 16 16 16 16 18 18 16 16 13 4 3 5 8 8 6 9 9 8 3 5 7 9 7 8 8 6 7 6 7 5 2 8 5 2 0 1 1 1 1 1 1 3 3 3 3 4 4 5 5 4 5
7 8 9 13 13 14 13 12 11 9 8 2 7 7 8 4 2 4 12 5 7 8 9 10 11 10 8 8 8 8 10 13 15 16 16 16 17 15 15 17 13 8 7 11 7 3 7 6 2 2 4 6 8 6 3 7 8 7 7 6 5 6 5 4 7 8 4 3 0 1 1 0 2 3 3 3 3 3 3 3 3 2 1 2 3 5
10 7 8 11 13 14 12 13 12 9 1 4 2 2 4 1 5 9 6 5 9 11 6 5 7 10 7 5 5 6 10 15 17 17 17 18 16 15 14 16 7 3 4 7 8 11 3 6 10 9 10 7 9 9 6 8 8 7 7 6 5 6 5 6 7 7 4 2 1 0 1 2 2 1 1 2 2 2 3 2 3 3 6 4 5 7
9 8 9 10 7 8 8 10 9 11 2 2 4 4 5 3 5 8 9 10 9 8 8 10 9 8 6 8 8 10 13 14 15 16 16 13 12 12 13 12 12 7 4 5 8 6 6 7 4 3 5 5 4 5 6 9 9 8 8 6 6 6 8 10 6 4 1 1 0 1 0 1 1 1 0 1 1 2 3 2 2 3 3 5 6 8
9 9 9 9 6 11 10 9 7 3 1 5 4 5 2 7 10 11 10 10 10 6 8 8 8 8 7 7 9 12 13 14 14 14 15 12 11 11 10 10 9 6 6 3 2 8 11 8 5 5 3 6 2 4 7 8 8 8 8 8 7 8 9 8 3 1 1 1 2 1 1 2 2 3 2 2 3 3 3 1 3 3 3 4 6 7
4 6 4 9 7 3 5 8 10 11 10 9 9 11 12 13 13 14 13 12 8 7 6 6 7 9 8 8 10 11 13 11 13 14 14 8 8 9 11 11 7 3 6 6 7 9 10 13 11 6 6 7 6 5 7 7 8 9 9 7 8 10 9 6 3 2 3 1 2 3 2 2 3 3 3 3 3 3 2 1 2 2 2 3 4 6
13 14 10 8 9 11 13 15 13 14 14 11 8 9 12 12 9 8 8 6 5 7 9 9 13 12 10 10 10 11 11 13 13 13 8 5 6 9 10 10 9 8 7 9 12 13 15 12 6 6 5 5 5 6 5 7 8 7 7 9 10 9 8 5 3 4 1 3 2 2 3 3 3 4 2 3 2 2 2 2 2 2 2 3 5 6
13 9 5 5 8 10 8 8 11 15 15 13 14 12 12 15 5 6 6 3 3 3 4 1 1 7 10 9 11 12 13 13 13 10 5 2 3 7 9 8 9 13 14 14 15 4 2 8 1 2 5 4 2 4 6 8 8 8 10 12 9 9 6 5 3 3 2 2 1 3 3 2 3 2 1 3 2 2 2 2 2 2 1 2 5 6
7 4 8 10 12 10 12 15 16 15 15 15 13 13 6 9 9 8 5 5 7 5 3 4 3 5 6 8 10 11 13 12 12 9 4 3 3 4 7 9 11 14 15 12 1 2 4 5 3 2 4 4 2 5 7 8 7 11 10 11 9 7 6 4 2 3 4 2 3 3 3 2 3 3 2 2 3 3 2 2 2 1 1 2 2 4
13 13 11 11 12 14 16 18 17 17 17 15 12 8 1 3 1 2 5 8 9 8 5 5 6 6 7 9 9 10 12 11 9 4 4 5 5 7 8 9 8 10 6 2 3 3 6 5 7 6 5 6 2 5 7 6 6 13 11 8 8 7 6 4 2 1 4 2 4 5 2 2 2 2 2 3 3 3 2 3 2 2 1 1 1 1
13 14 14 13 13 12 11 11 7 7 10 11 10 11 6 5 3 3 5 10 11 4 3 5 6 7 6 8 8 7 7 7 6 5 6 7 7 8 8 6 7 12 11 5 4 5 4 3 2 4 6 7 4 6 8 5 10 13 11 9 8 6 5 5 5 5 4 1 4 4 2 1 1 3 3 3 4 4 3 6 3 2 2 1 3 6
12 14 9 8 8 11 14 15 10 9 11 14 14 12 12 10 7 6 8 12 7 2 3 4 5 6 7 7 3 3 5 6 7 9 8 8 7 7 7 6 6 8 12 9 6 5 4 4 4 5 7 8 4 7 6 5 12 10 9 9 8 7 5 6 6 3 3 2 4 3 2 2 4 3 3 3 4 4 5 4 4 5 3 5 6 5
Wind_Direction
172 229 223 225 233 309 258 214 245 22 336 344 313 307 301 299 237 238 125 162 176 201 220 227 235 258 265 260 261 214 172 191 217 209 229 207 190 200 203 207 214 210 203 183 168 157 164 158 155 150 155 159 157 162 159 169 166 165 159 154 170 167 178 207 212 58 53 57 119 114 119 125 91 48 63 132 81 11 80 10 20 11 8 62 6 330
257 243 251 243 238 33 29 358 17 358 352 318 318 297 289 286 293 291 81 72 74 253 260 246 266 269 270 266 257 259 178 190 196 219 215 221 211 209 210 204 205 214 216 214 167 160 167 160 160 153 154 163 166 174 171 178 172 169 163 165 162 151 193 232 87 103 87 45 35 69 48 348 87 58 24 68 91 167 111 118 183 260 10 74 226 218
214 238 250 258 229 45 73 339 344 349 327 330 295 295 282 273 280 278 166 170 150 139 252 268 275 276 272 265 257 251 261 184 191 203 222 215 220 223 220 222 223 216 215 207 200 168 167 159 162 159 156 166 174 172 176 177 177 169 171 169 155 161 178 154 119 151 116 83 42 57 84 2 103 111 49 83 129 68 122 165 188 166 155 36 345 341
239 230 236 185 120 255 246 241 304 339 325 285 286 269 263 276 282 279 133 155 27 308 305 298 281 272 265 260 259 258 233 251 177 189 200 223 235 228 224 219 218 231 232 227 208 195 162 159 160 164 160 167 175 171 174 177 180 177 174 177 155 170 167 147 187 120 114 111 113 110 114 103 4 134 175 165 163 136 131 47 36 172 76 45 296 306
267 57 44 114 131 252 259 287 304 275 270 245 251 265 268 258 248 301 9 337 34 282 276 278 268 266 261 256 251 233 234 255 225 186 196 209 224 241 255 248 222 221 217 213 209 234 152 158 160 169 167 167 176 174 178 178 180 178 179 176 163 164 172 150 166 121 124 132 148 145 181 149 330 240 110 81 86 113 86 140 138 65 93 278 306 354
260 219 150 174 188 248 227 253 226 260 254 269 250 239 261 282 299 283 266 256 249 258 227 214 266 259 246 242 241 226 216 225 237 239 209 203 211 217 228 237 237 223 271 277 221 187 146 155 158 170 173 171 178 179 180 176 180 175 175 178 167 159 175 154 159 154 158 168 186 178 190 191 198 166 107 89 79 62 87 43 122 211 139 118 348 264
153 109 185 274 222 231 240 246 250 204 243 264 261 249 225 226 237 280 295 300 278 280 279 179 243 278 288 284 209 222 226 214 217 227 234 227 215 215 217 218 218 221 216 217 246 149 154 160 165 171 177 178 182 182 176 174 180 178 171 180 169 164 175 149 166 172 181 192 197 207 199 57 40 110 106 119 131 105 107 146 98 19 192 194 188 205
172 167 158 230 273 241 249 248 226 252 259 241 36 318 312 297 261 272 279 273 285 280 280 176 206 255 283 281 306 206 205 232 209 211 222 228 233 229 214 208 212 210 205 187 211 180 169 175 178 174 177 182 184 180 175 173 177 181 169 178 167 168 175 152 171 175 201 180 181 169 198 153 179 95 123 158 140 136 175 99 172 177 193 325 343 164
327 272 187 228 229 256 251 240 252 219 238 272 145 290 270 260 270 264 263 267 262 263 260 209 229 264 245 273 272 280 249 205 203 207 211 225 240 241 226 216 218 202 186 184 187 207 172 176 185 179 177 182 180 179 179 171 173 176 172 174 165 175 172 158 167 179 193 200 161 164 179 215 125 123 152 174 169 168 113 129 136 44 6 202 174 263
249 251 215 249 255 242 241 255 234 227 230 247 289 309 281 293 288 267 261 259 249 243 247 258 227 226 249 244 245 231 256 187 194 208 216 211 218 235 218 220 216 193 188 185 185 199 181 173 179 184 177 178 181 176 173 166 168 175 172 173 168 180 176 161 168 179 190 205 156 175 192 196 147 185 164 201 133 146 160 188 148 195 208 234 164 154
276 111 295 238 225 242 244 234 263 216 230 69 318 287 261 244 242 244 253 266 277 257 250 247 265 276 275 250 259 259 219 200 204 211 206 194 202 217 208 202 204 202 190 189 179 187 196 169 172 176 179 179 174 169 170 166 170 173 174 178 171 181 176 162 172 177 183 197 158 192 188 183 174 179 160 197 128 204 152 212 168 189 218 80 349 41
244 221 200 227 257 258 253 267 278 306 195 248 243 233 255 248 231 237 237 228 248 260 263 264 256 241 254 245 257 293 6 186 224 248 184 197 194 202 199 203 200 208 204 179 178 181 190 162 165 169 177 176 170 167 168 165 169 174 176 179 173 180 181 162 173 178 177 179 181 188 169 183 184 163 181 210 182 182 171 170 261 194 205 205 207 190
234 241 211 220 205 239 244 260 250 226 220 236 238 255 260 265 239 236 216 236 234 251 264 265 260 251 235 255 280 299 314 176 216 279 289 243 192 186 198 196 201 198 214 184 183 178 168 164 163 169 174 175 167 170 168 166 171 172 177 179 177 183 183 165 171 182 173 179 186 187 167 181 178 177 191 202 198 165 181 195 205 236 291 301 249 205
246 222 232 217 208 189 239 234 232 222 203 216 232 235 239 247 255 254 243 233 244 245 260 269 295 265 299 278 257 268 276 276 200 199 265 290 204 177 192 190 193 200 212 204 189 187 164 159 159 165 175 173 167 166 167 168 171 175 179 180 183 184 182 170 169 180 179 182 184 182 172 179 175 182 199 194 193 177 211 203 203 185 213 258 272 283
256 234 232 247 226 175 207 233 259 283 211 218 228 240 242 256 258 271 273 274 272 300 268 265 1 249 234 212 233 248 268 283 249 224 212 265 256 179 198 208 203 205 212 223 207 204 162 159 161 166 170 167 162 168 175 173 176 177 180 183 186 185 180 176 170 177 182 182 183 181 179 179 177 181 188 199 208 182 194 219 236 207 251 259 273 263
268 272 264 191 270 197 216 217 248 261 275 276 245 219 246 258 281 269 298 297 301 306 292 275 253 329 246 296 267 273 277 276 287 221 185 218 248 207 212 222 230 209 203 205 223 216 153 155 158 157 168 165 166 177 179 178 178 180 185 184 187 189 178 178 169 178 183 184 181 184 184 186 180 182 184 193 208 189 182 203 203 229 232 246 279 297
272 267 264 286 229 227 225 227 235 234 261 241 264 263 251 220 249 275 272 277 294 275 271 280 270 267 270 245 245 271 269 251 270 288 233 219 217 216 217 221 241 267 250 189 205 223 131 156 156 168 175 173 171 180 183 185 180 183 182 180 184 189 179 176 173 178 182 183 184 186 187 185 188 189 191 193 193 189 170 191 209 234 242 248 241 261
288 284 294 291 285 212 230 257 263 265 261 258 256 256 282 278 275 249 270 257 245 265 274 268 262 270 271 286 271 233 234 258 253 238 260 213 198 198 193 198 228 238 248 261 214 217 171 159 167 171 177 179 178 181 181 186 183 182 181 179 182 186 183 177 176 178 180 184 187 183 189 191 190 192 193 198 197 174 186 194 218 228 239 232 237 242
294 279 262 255 265 274 247 242 251 250 259 275 280 312 279 269 263 250 260 256 267 262 277 260 261 258 254 257 248 265 261 270 292 293 245 267 252 236 208 191 201 224 240 239 241 213 209 171 168 171 170 178 180 183 181 181 175 176 179 181 183 184 187 178 174 176 178 182 184 182 188 189 188 189 192 194 203 186 201 214 215 225 232 246 255 266
275 277 272 267 268 284 280 272 264 260 247 252 254 258 258 274 274 277 246 264 248 261 254 256 258 260 262 271 284 279 282 284 280 266 283 271 269 241 203 202 198 198 204 216 235 233 206 198 170 162 167 179 181 184 181 174 166 174 178 179 183 183 182 173 170 172 180 182 180 181 181 189 191 192 192 191 193 200 209 218 222 230 245 250 259 264
281 267 278 280 286 290 255 242 258 254 255 255 263 271 274 266 291 274 261 258 259 260 263 279 273 260 261 275 287 297 311 314 299 307 293 275 255 266 267 216 205 217 181 186 227 238 206 185 176 162 167 187 189 183 172 157 162 171 171 179 182 179 182 175 171 173 179 179 181 179 185 189 190 193 191 195 195 202 213 220 225 234 243 252 248 250
290 275 274 286 264 250 264 258 268 268 266 265 260 263 266 242 255 18 287 285 287 276 269 278 275 278 265 299 321 326 341 347 334 323 323 347 340 353 338 327 282 192 162 161 196 245 219 192 181 170 173 186 201 168 160 157 164 167 171 178 180 178 183 179 172 177 179 179 180 185 186 189 190 193 195 199 195 205 213 219 227 232 240 247 255 257
351 342 293 283 270 274 280 286 288 291 286 279 274 265 265 263 258 234 245 256 265 269 268 238 261 264 282 296 278 311 9 343 330 338 353 2 16 16 12 3 311 253 167 190 181 220 233 204 194 190 182 186 155 156 160 158 166 169 173 178 181 182 187 186 176 177 177 176 181 188 184 187 189 190 199 196 199 209 215 221 226 228 237 241 250 251
355 278 282 271 276 270 267 264 259 258 266 269 262 265 264 263 266 270 268 277 271 271 269 274 258 275 278 302 316 40 17 345 344 323 307 344 2 2 7 359 19 344 322 258 216 211 231 226 205 201 193 188 159 163 166 163 171 170 172 179 182 185 189 185 173 176 178 178 184 184 184 191 189 193 193 203 205 214 216 222 227 232 240 248 249 255
308 236 262 285 287 281 274 266 262 256 260 296 316 317 328 327 336 329 325 315 287 264 266 273 271 268 281 330 330 317 317 313 316 311 317 324 334 311 16 6 353 333 331 327 298 247 226 233 231 217 203 204 151 174 166 168 176 172 172 179 180 180 188 184 173 178 183 184 183 182 185 188 194 194 197 201 203 214 218 227 233 233 246 250 254 259
297 290 294 273 274 277 272 269 288 12 359 330 296 299 292 291 289 292 282 286 276 276 278 272 276 286 295 296 301 305 312 306 309 308 314 315 314 321 321 123 303 299 294 290 312 319 293 241 233 232 225 213 170 176 168 172 177 172 175 180 178 175 179 182 169 177 182 182 183 183 184 190 193 199 200 202 209 220 229 235 241 246 245 252 259 263
298 294 275 271 268 268 275 291 311 323 307 304 298 294 289 286 285 285 286 274 262 277 275 269 272 288 288 292 292 292 293 293 300 315 315 315 315 315 312 306 276 234 239 253 248 259 308 303 259 238 236 227 178 175 177 181 182 180 175 176 179 173 176 175 167 176 182 180 180 179 185 192 192 196 200 202 208 215 226 232 237 241 249 252 259 264
263 266 263 268 266 266 277 281 289 295 289 284 283 282 283 280 278 276 269 270 290 290 274 266 273 288 286 288 287 288 291 296 301 304 305 300 296 297 300 296 294 283 264 240 238 216 229 284 316 295 266 226 198 202 203 180 189 181 170 173 177 170 170 170 169 176 181 178 174 179 182 188 190 192 201 200 205 216 226 242 247 251 258 261 264 274
242 265 260 260 262 267 272 280 283 282 281 284 280 276 274 274 274 272 272 279 281 271 272 286 287 275 275 277 280 282 293 300 299 298 297 294 288 286 280 277 276 274 269 255 244 242 240 226 246 301 290 251 214 225 220 177 179 173 156 171 173 166 169 165 168 174 179 176 176 177 174 178 186 186 192 197 214 225 235 241 244 248 257 266 277 277
270 248 260 255 266 265 265 273 284 285 285 280 276 273 272 274 281 286 283 280 275 272 273 273 277 277 273 271 275 286 294 296 294 290 285 281 281 279 277 278 279 278 276 268 243 224 184 181 181 206 294 300 273 232 215 158 173 169 157 170 171 164 169 163 169 173 176 178 175 161 175 177 172 183 188 208 219 231 239 240 245 252 264 268 268 271
198 244 249 270 278 277 274 269 264 269 275 274 269 267 268 274 280 276 272 267 264 261 262 267 272 274 267 274 285 290 291 290 287 282 278 281 286 283 280 276 273 274 275 275 262 209 208 202 208 190 191 270 291 261 196 161 177 159 166 171 168 169 167 167 166 175 172 177 170 167 179 184 186 186 200 210 221 226 234 246 254 260 260 265 271 273
244 269 265 265 272 271 278 283 280 271 265 263 263 261 268 273 267 262 263 263 266 264 270 277 267 263 281 291 288 287 286 286 291 295 295 295 298 305 302 296 288 286 291 291 281 259 204 183 188 159 149 192 286 267 216 170 178 155 171 170 171 169 169 160 167 171 170 174 166 172 182 184 190 197 213 219 231 236 242 248 256 265 276 280 282 285
271 264 264 271 273 271 274 280 286 300 306 285 265 280 260 252 256 261 258 256 251 254 257 257 260 274 282 286 288 288 288 290 291 306 332 334 325 319 317 320 315 306 298 302 311 303 273 208 182 163 157 165 236 269 234 181 176 162 171 165 166 166 164 156 167 170 167 175 172 177 179 177 194 206 214 223 233 240 238 251 264 272 278 277 290 315
267 262 263 265 265 275 285 286 289 285 264 252 31 261 268 279 279 264 251 248 251 249 254 261 277 286 281 281 286 294 298 310 316 323 316 312 308 303 303 300 298 295 296 300 299 302 316 289 205 184 181 185 185 211 264 196 176 149 160 156 167 161 165 164 166 168 167 172 177 181 169 185 195 207 231 237 242 247 252 260 267 275 276 279 277 283
256 267 267 262 263 270 279 268 261 250 250 301 292 279 276 273 270 270 276 276 275 274 284 291 280 275 281 283 289 294 309 319 315 313 309 307 307 303 298 295 291 289 289 288 287 294 311 296 248 219 187 178 162 178 216 184 176 140 161 152 167 158 160 165 164 169 164 169 177 170 170 187 196 214 232 244 253 252 261 267 270 263 264 273 278 52
242 245 254 254 258 270 269 258 253 250 279 288 285 291 290 285 284 293 289 279 279 277 278 273 264 274 295 333 356 343 324 320 312 300 302 306 300 299 308 318 322 324 316 310 302 294 281 276 250 213 176 148 172 190 189 177 156 143 154 152 168 156 158 156 161 172 163 160 154 162 159 192 214 233 238 250 254 258 261 267 271 276 272 277 320 12
245 247 240 249 236 252 257 259 259 290 285 278 286 283 301 317 342 324 295 291 299 310 297 300 328 348 346 328 352 343 330 317 301 297 296 290 314 340 330 321 317 314 308 295 286 284 266 229 217 263 242 194 178 161 130 134 151 147 154 151 171 152 158 164 174 170 152 159 158 166 183 208 246 260 266 270 280 279 273 283 291 290 304 306 49 343
223 230 217 238 241 241 255 264 269 266 264 269 285 29 54 44 29 38 2 295 287 301 9 349 334 334 332 331 326 329 332 313 291 291 301 306 338 329 319 308 304 303 299 292 310 323 330 310 227 209 191 153 124 130 171 170 160 161 152 158 155 155 166 175 169 163 155 146 155 156 164 204 229 250 257 263 265 289 326 312 290 290 321 339 346 335
224 226 231 235 252 251 253 258 258 261 267 284 340 62 58 74 34 280 260 279 37 40 44 23 357 319 316 323 315 312 304 289 284 293 313 331 327 319 312 309 302 300 297 291 278 254 276 296 233 188 158 135 144 163 178 166 157 159 153 148 156 161 170 160 154 160 164 121 107 90 63 338 334 340 341 325 317 320 316 318 324 315 307 13 80 307
249 236 234 234 240 242 249 251 253 254 270 308 72 125 111 87 93 78 290 270 51 341 13 337 318 300 308 301 292 289 286 283 291 307 327 316 310 309 309 311 302 299 305 302 299 142 72 11 319 33 93 119 125 131 150 149 147 149 149 151 162 159 164 153 165 145 79 77 89 134 276 214 229 218 279 345 348 0 340 320 306 315 27 11 347 320
263 264 256 256 257 258 256 262 262 263 269 21 86 99 124 105 11 270 260 283 1 325 324 333 331 332 335 331 322 306 302 302 306 311 310 309 309 314 320 311 298 313 338 348 330 3 106 101 240 162 146 159 164 152 192 141 140 146 137 150 154 156 142 123 112 93 84 75 59 255 250 6 35 32 18 349 340 328 299 291 311 344 104 342 329 327
269 277 271 269 261 263 261 264 260 268 75 130 207 132 108 127 244 258 319 348 303 299 332 13 312 297 301 300 305 275 275 289 301 304 307 310 318 326 326 319 319 345 16 12 310 297 80 124 246 212 167 166 148 173 171 133 141 143 141 146 153 124 137 106 79 79 94 222 234 222 42 38 30 43 273 263 270 271 283 327 322 8 25 359 337 326
275 275 270 264 274 274 271 273 284 274 101 196 72 276 140 264 288 318 311 298 308 321 312 297 294 299 323 308 293 293 295 298 302 307 310 328 339 325 318 322 322 322 349 23 351 335 314 214 225 219 130 123 133 155 151 145 147 145 141 148 135 120 96 82 81 108 180 190 4 57 298 183 211 233 329 298 299 305 326 326 353 31 14 356 341 328
295 278 268 261 257 271 265 259 260 326 32 187 251 293 266 253 276 282 295 294 284 278 291 299 302 313 319 304 299 297 299 304 306 310 315 330 333 328 324 337 338 313 350 9 310 302 303 293 196 231 121 99 229 177 156 157 148 143 143 138 127 95 91 91 109 119 88 126 210 185 39 9 25 22 14 353 0 346 304 351 53 10 350 348 336 326
214 256 298 291 324 300 294 291 302 325 321 291 285 283 278 285 301 305 293 288 313 316 320 298 304 300 304 302 301 300 301 304 304 309 318 340 335 335 337 325 348 346 306 320 273 247 257 261 233 172 143 151 199 162 155 147 143 147 143 133 121 111 104 120 152 149 184 213 82 60 356 71 33 35 23 12 334 289 276 44 49 5 0 336 318 305
288 289 316 316 285 303 291 283 289 281 283 303 320 307 307 307 334 360 1 352 15 9 328 325 322 315 315 314 309 308 305 309 312 315 331 330 334 334 326 324 330 312 282 256 256 254 231 233 267 144 142 155 185 160 147 140 145 155 120 101 94 103 119 137 165 154 237 79 64 65 33 38 55 25 321 276 308 330 358 42 40 21 349 318 303 299
287 319 351 280 293 294 276 282 286 292 296 284 276 281 288 290 328 6 7 335 300 255 246 207 287 307 310 317 308 307 308 307 308 313 303 278 343 314 301 299 295 289 281 262 254 242 329 308 307 140 147 143 206 150 149 141 160 132 109 110 122 117 134 154 139 131 146 98 113 88 52 33 61 309 324 20 0 334 350 16 30 25 346 296 295 301
288 73 284 278 279 267 274 283 287 287 281 277 271 276 315 13 5 355 323 311 292 276 262 254 231 271 294 306 310 310 303 301 296 302 308 292 280 284 279 285 276 264 256 245 180 333 289 272 251 191 175 144 216 145 146 168 170 136 132 119 119 129 133 135 159 156 112 156 114 78 41 16 171 216 27 12 352 354 357 33 57 31 258 276 293 302
295 307 280 286 281 281 280 279 284 297 297 294 307 314 318 273 150 306 310 311 299 271 271 253 245 282 303 299 310 307 299 293 293 293 301 294 270 262 266 274 268 263 258 262 257 250 253 226 221 190 159 146 171 139 145 208 125 117 110 124 124 128 137 115 128 170 141 155 155 104 64 39 328 7 38 359 359 355 28 106 204 220 238 188 225 263
282 272 286 286 279 279 284 293 303 289 298 299 293 289 276 153 214 231 234 247 243 254 247 288 306 324 315 312 315 303 295 311 316 326 324 323 330 318 275 268 320 333 319 281 273 239 259 256 332 197 155 130 166 158 155 221 113 119 133 131 133 148 139 149 181 207 162 190 84 86 70 273 248 62 22 2 357 353 3 164 231 121 175 266 205 230
268 281 295 296 300 299 306 304 305 298 280 282 290 285 280 293 291 279 287 298 316 216 285 312 334 314 316 322 318 264 301 311 322 328 325 324 329 329 323 354 347 312 314 306 249 249 210 209 233 181 126 131 186 148 161 157 117 128 130 136 147 146 161 180 209 197 111 107 76 75 281 319 28 47 31 20 13 357 352 346 191 208 208 204 228 252